Home > Time Zones > World Clock > Weather > U.S.A. > Napa > Past weeks

Flag for U.S.A. Weather past 2 weeks in Napa, California, U.S.A.

Now
53 °F

Passing clouds.


Feels Like: 48 °F
Forecast: 48 / 67 °F
Wind: 16 mph from West

Location: Napa County Airport

Current Time: Apr 20, 2015 at 10:16:08 PM

Latest Report: Apr 20, 2015 at 9:54 PM


Visibility: 10 mi

Pressure: 29.82 "Hg

Humidity: 89%

Dew point: 50 °F

Location of NapaLocation

Historic Weather in Napa — Graph

°F

Napa temperature yesterday

Maximum temperature yesterday: 67 °F (at 3:54 PM)
Minimum temperature yesterday: 46 °F (at 1:54 AM)
Average temperature yesterday: 54 °F

Past Weeks' High & Low Weather Summary

 TemperatureHumidityPressure
High78 °F (Apr 16, 1:54 PM)100% (Apr 12, 12:58 AM)30.33 "Hg (Apr 12, 12:58 AM)
Low34 °F (Apr 6, 6:54 AM)18% (Apr 16, 1:54 PM)29.72 "Hg (Apr 7, 4:54 AM)
Average54 °F71%29.99 "Hg
* Reported Apr 5 8:54 PM — Apr 20 8:54 PM, Napa, Weather by CustomWeather, © 2015

Note: Actual official high and low records may vary slightly from our data, if they occured in-between our weather recording intervals... More about our weather records

Advertising

Napa weather history for previous 24 hours

 ConditionsComfort  
Time TempWeatherWind HumidityBarometerVisibility
8:54 PM
Mon, Apr 20
54 °FClear.16 mph86%29.81 "Hg10 mi
7:54 PM55 °FSunny.14 mph80%29.80 "Hg10 mi
6:54 PM58 °FSunny.20 mph75%29.78 "Hg10 mi
5:54 PM62 °FSunny.17 mph67%29.78 "Hg10 mi
4:54 PM65 °FSunny.15 mph63%29.78 "Hg10 mi
3:54 PM63 °FSunny.18 mph70%29.80 "Hg10 mi
2:54 PM63 °FSunny.17 mph70%29.82 "Hg10 mi
1:54 PM63 °FSunny.14 mph73%29.83 "Hg10 mi
12:54 PM63 °FScattered clouds.14 mph70%29.84 "Hg10 mi
11:54 AM59 °FOvercast.9 mph75%29.86 "Hg10 mi
10:54 AM55 °FOvercast.9 mph83%29.88 "Hg10 mi
9:54 AM54 °FOvercast.8 mph86%29.87 "Hg10 mi
8:54 AM53 °FLow clouds.10 mph89%29.87 "Hg10 mi
7:54 AM52 °FLow clouds.8 mph93%29.87 "Hg10 mi
6:54 AM52 °FLow clouds.10 mph89%29.85 "Hg10 mi
5:54 AM52 °FLow clouds.10 mph93%29.85 "Hg10 mi
4:54 AM52 °FLow clouds.12 mph93%29.85 "Hg10 mi
3:54 AM52 °FLow clouds.10 mph93%29.85 "Hg10 mi
2:54 AM52 °FLow clouds.12 mph93%29.85 "Hg10 mi
1:54 AM52 °FLow clouds.10 mph93%29.86 "Hg10 mi
12:54 AM51 °FPassing clouds.12 mph96%29.85 "Hg9 mi
11:54 PM
Sun, Apr 19
51 °FClear.10 mph96%29.85 "Hg10 mi
10:54 PM51 °FClear.8 mph92%29.86 "Hg10 mi
Weather by CustomWeather, © 2015

See weather overviewHow to use our weather pages